N8VIM Weather Reports


time (UTC)temp
F
wind
direction
speed
knots
gust
knots
rain 1hr
in
rain 24hr
in
rain mn
in
humidity
%
barometer
mb
20200224040622 31 56 0.9 2.6 2.94 0.00 0.00 77 1018.3
20200224040123 31 0 0.9 0.0 2.94 0.00 0.00 78 1018.3
20200224035622 31 0 0.0 0.0 2.94 0.00 0.00 78 1018.3
20200224035122 31 0 0.0 0.0 2.94 0.00 0.00 79 1018.3
20200224034623 31 37 0.0 3.5 2.94 0.00 0.00 80 1018.3
20200224034122 31 359 1.7 2.6 2.94 0.00 0.00 80 1018.3
20200224033622 31 0 0.0 0.0 2.94 0.00 0.00 81 1018.4
20200224033123 31 17 0.0 4.3 2.94 0.00 0.00 80 1018.3
20200224032622 31 20 2.6 4.3 2.94 0.00 0.00 80 1018.3
20200224032122 31 34 0.9 3.5 2.94 0.00 0.00 80 1018.4
20200224031623 30 41 1.7 3.5 2.94 0.00 0.00 82 1018.3
20200224031122 30 44 0.9 3.5 2.94 0.00 0.00 83 1018.2
20200224030622 30 38 2.6 4.3 2.94 0.00 0.00 84 1018.3
20200224030123 31 0 0.0 0.0 2.94 0.00 0.00 83 1018.4
20200224025622 31 0 0.0 0.0 2.94 0.00 0.00 81 1018.2
20200224025124 31 14 0.0 1.7 2.94 0.00 0.00 81 1018.1
20200224024623 31 27 0.0 1.7 2.94 0.00 0.00 80 1018.1
20200224024122 31 46 0.9 2.6 2.94 0.00 0.00 82 1018.1
20200224023622 31 39 1.7 2.6 2.94 0.00 0.00 83 1018.1
20200224023123 31 0 0.0 0.0 2.94 0.00 0.00 81 1018.1
20200224022622 31 0 0.0 0.0 2.94 0.00 0.00 79 1018.0
20200224022123 31 0 0.0 0.0 2.94 0.00 0.00 80 1018.0
20200224021623 32 0 0.0 0.0 2.94 0.00 0.00 80 1018.0
20200224021122 32 352 0.0 1.7 2.94 0.00 0.00 81 1018.1
20200224020622 32 4 0.9 1.7 2.94 0.00 0.00 79 1018.0
20200224020123 32 20 1.7 2.6 2.94 0.00 0.00 75 1017.9
20200224015622 32 21 2.6 3.5 2.94 0.00 0.00 76 1017.9
20200224015122 33 352 0.0 0.9 2.94 0.00 0.00 78 1017.9
20200224014623 33 21 0.0 2.6 2.94 0.00 0.00 77 1017.9
20200224014122 33 11 1.7 2.6 2.94 0.00 0.00 75 1017.8
20200224013622 33 15 1.7 2.6 2.94 0.00 0.00 75 1017.9
20200224013123 33 11 2.6 2.6 2.94 0.00 0.00 77 1017.9
20200224012622 33 0 0.0 0.0 2.94 0.00 0.00 77 1017.9
20200224012122 34 0 0.0 0.0 2.94 0.00 0.00 76 1017.9
20200224011623 34 0 0.0 0.0 2.94 0.00 0.00 76 1017.9
20200224011122 34 0 0.0 0.0 2.94 0.00 0.00 73 1017.9
20200224010622 34 0 0.0 0.0 2.94 0.00 0.00 73 1017.9
20200224010123 34 0 0.0 0.0 2.94 0.00 0.00 73 1017.9
20200224005622 35 0 0.0 0.0 2.94 0.00 0.00 73 1017.9
20200224005122 35 0 0.0 0.0 2.94 0.00 0.00 71 1017.9
20200224004623 36 0 0.0 0.0 2.94 0.00 0.00 70 1017.8
20200224004122 36 0 0.0 0.0 2.94 0.00 0.00 72 1017.8
20200224003622 37 0 0.0 0.0 2.94 0.00 0.00 69 1017.8
20200224003122 37 0 0.0 0.0 2.94 0.00 0.00 67 1017.8
20200224002622 37 0 0.0 0.0 2.94 0.00 0.00 62 1017.8
20200224002123 38 0 0.0 0.0 2.94 0.00 0.00 61 1017.8
20200224001623 38 0 0.0 0.0 2.94 0.00 0.00 61 1017.8
20200224001122 38 0 0.0 0.0 2.94 0.00 0.00 61 1017.8
20200224000622 39 0 0.0 0.0 2.94 0.00 0.00 61 1017.7
20200224000155 39 0 0.0 0.0 2.94 0.00 0.00 60 1017.7
20200224000123 39 0 0.0 0.0 2.94 0.00 0.00 60 1017.7
20200223235622 40 0 0.0 0.0 2.94 0.00 0.00 59 1017.7
20200223235122 40 0 0.0 0.0 2.94 0.00 0.00 58 1017.6
20200223234623 40 0 0.0 0.0 2.94 0.00 0.00 57 1017.6
20200223234122 41 0 0.0 0.0 2.94 0.00 0.00 55 1017.6
20200223233622 41 319 0.0 0.9 2.94 0.00 0.00 55 1017.6
20200223233122 41 323 0.0 0.9 2.94 0.00 0.00 54 1017.5
20200223232622 42 0 0.0 0.0 2.94 0.00 0.00 55 1017.6
20200223232122 42 0 0.0 0.0 2.94 0.00 0.00 53 1017.6
20200223231622 43 0 0.0 0.0 2.94 0.00 0.00 51 1017.6
20200223231122 44 0 0.0 0.0 2.94 0.00 0.00 49 1017.5
20200223230622 45 0 0.0 0.0 2.94 0.00 0.00 47 1017.5
20200223230122 45 0 0.0 0.0 2.94 0.00 0.00 45 1017.4
20200223225622 45 0 0.0 0.0 2.94 0.00 0.00 44 1017.3
20200223225122 46 0 0.0 0.0 2.94 0.00 0.00 44 1017.3
20200223224622 46 0 0.0 0.0 2.94 0.00 0.00 43 1017.2
20200223224122 47 0 0.0 0.0 2.94 0.00 0.00 42 1017.3
20200223223622 48 290 0.0 1.7 2.94 0.00 0.00 41 1017.2
20200223223122 48 0 0.0 0.0 2.94 0.00 0.00 40 1017.2
20200223222622 48 0 0.0 0.0 2.94 0.00 0.00 40 1017.2
20200223222122 49 0 0.0 0.0 2.94 0.00 0.00 39 1017.2
20200223221622 49 0 0.0 0.0 2.94 0.00 0.00 39 1017.1
20200223221122 49 0 0.0 0.0 2.94 0.00 0.00 39 1017.1
20200223220622 50 172 0.0 0.0 2.94 0.00 0.00 38 1017.1
20200223220122 50 0 0.0 0.0 2.94 0.00 0.00 38 1017.1
20200223215622 50 211 0.0 1.7 2.94 0.00 0.00 38 1017.2
20200223215122 50 0 0.0 0.0 2.94 0.00 0.00 38 1017.2
20200223214622 50 311 0.0 2.6 2.94 0.00 0.00 38 1017.3
20200223214122 50 314 0.0 5.2 2.94 0.00 0.00 38 1017.2
20200223213622 50 280 0.0 3.5 2.94 0.00 0.00 38 1017.2
20200223213122 50 0 0.0 0.0 2.94 0.00 0.00 38 1017.3
20200223212621 50 300 0.0 2.6 2.94 0.00 0.00 39 1017.3
20200223212121 50 300 0.9 4.3 2.94 0.00 0.00 40 1017.3
20200223211622 51 284 2.6 3.5 2.94 0.00 0.00 38 1017.3
20200223211122 51 183 0.9 5.2 2.94 0.00 0.00 38 1017.2
20200223210621 51 305 2.6 4.3 2.94 0.00 0.00 38 1017.3
20200223210122 51 198 0.9 6.1 2.94 0.00 0.00 37 1017.2
20200223205622 51 312 1.7 6.1 2.94 0.00 0.00 38 1017.2
20200223205121 51 288 1.7 8.7 2.94 0.00 0.00 38 1017.3
20200223204622 51 332 2.6 5.2 2.94 0.00 0.00 36 1017.4
20200223204124 51 298 2.6 7.0 2.94 0.00 0.00 37 1017.4
20200223203621 51 276 0.9 6.1 2.94 0.00 0.00 36 1017.3
20200223203123 51 300 3.5 7.0 2.94 0.00 0.00 36 1017.3
20200223202621 51 311 3.5 7.8 2.94 0.00 0.00 36 1017.4
20200223202121 51 293 4.3 8.7 2.94 0.00 0.00 35 1017.4
20200223201622 51 304 3.5 7.8 2.94 0.00 0.00 36 1017.4
20200223201121 51 278 1.7 5.2 2.94 0.00 0.00 38 1017.4
20200223200621 51 293 3.5 9.6 2.94 0.00 0.00 36 1017.4
20200223200122 51 235 5.2 7.8 2.94 0.00 0.00 36 1017.4
20200223195621 51 248 2.6 6.1 2.94 0.00 0.00 36 1017.5
20200223195121 51 300 0.9 8.7 2.94 0.00 0.00 38 1017.5
20200223194622 51 285 2.6 11.3 2.94 0.00 0.00 37 1017.6
20200223194121 52 283 1.7 11.3 2.94 0.00 0.00 35 1017.6
20200223193621 52 287 3.5 10.4 2.94 0.00 0.00 35 1017.7
20200223193122 51 309 4.3 7.8 2.94 0.00 0.00 37 1017.7
20200223192621 51 218 2.6 10.4 2.94 0.00 0.00 38 1017.7
20200223192121 51 221 2.6 10.4 2.94 0.00 0.00 36 1017.8
20200223191622 51 271 4.3 7.8 2.94 0.00 0.00 36 1017.8
20200223191121 51 273 4.3 8.7 2.94 0.00 0.00 37 1017.9
20200223190621 51 203 2.6 10.4 2.94 0.00 0.00 36 1017.9
20200223190123 51 255 6.1 9.6 2.94 0.00 0.00 36 1017.9
20200223185621 52 295 5.2 9.6 2.94 0.00 0.00 36 1018.0
20200223185122 52 308 2.6 11.3 2.94 0.00 0.00 36 1018.0
20200223184622 52 176 6.1 10.4 2.94 0.00 0.00 34 1018.1
20200223184121 52 293 5.2 9.6 2.94 0.00 0.00 34 1018.1
20200223183621 52 293 6.1 9.6 2.94 0.00 0.00 34 1018.1
20200223183122 52 285 3.5 12.2 2.94 0.00 0.00 35 1018.2
20200223182621 52 285 0.9 9.6 2.94 0.00 0.00 37 1018.2
20200223182121 52 186 5.2 12.2 2.94 0.00 0.00 36 1018.3
20200223181622 51 288 0.9 9.6 2.94 0.00 0.00 36 1018.3
20200223181121 51 312 4.3 10.4 2.94 0.00 0.00 38 1018.4
20200223180621 51 194 4.3 15.6 2.94 0.00 0.00 38 1018.4
20200223180122 52 295 5.2 12.2 2.94 0.00 0.00 35 1018.4
20200223175621 52 285 2.6 7.8 2.94 0.00 0.00 36 1018.5
20200223175121 52 224 2.6 7.0 2.94 0.00 0.00 37 1018.7
20200223174622 51 316 3.5 7.0 2.94 0.00 0.00 38 1018.6
20200223174122 51 322 0.9 7.8 2.94 0.00 0.00 39 1018.8
20200223173621 51 293 2.6 10.4 2.94 0.00 0.00 38 1018.8
20200223173124 51 288 5.2 8.7 2.94 0.00 0.00 38 1019.0
20200223172623 50 285 6.1 8.7 2.94 0.00 0.00 38 1019.1
20200223172121 51 287 6.1 9.6 2.94 0.00 0.00 39 1019.2
20200223171622 51 212 4.3 10.4 2.94 0.00 0.00 40 1019.1
20200223171121 50 295 5.2 5.2 2.94 0.00 0.00 41 1019.2
20200223170621 50 311 0.9 8.7 2.94 0.00 0.00 40 1019.3
20200223170122 50 200 5.2 8.7 2.94 0.00 0.00 41 1019.4
20200223165621 50 315 6.1 8.7 2.94 0.00 0.00 42 1019.4
20200223165121 49 290 1.7 9.6 2.94 0.00 0.00 42 1019.5
20200223164622 49 141 1.7 7.0 2.94 0.00 0.00 43 1019.5
20200223164121 49 290 0.9 5.2 2.94 0.00 0.00 44 1019.6
20200223163621 49 293 2.6 8.7 2.94 0.00 0.00 43 1019.7
20200223163122 49 294 4.3 9.6 2.94 0.00 0.00 42 1019.8
20200223162621 49 308 5.2 5.2 2.94 0.00 0.00 41 1019.8
20200223162121 48 274 3.5 7.0 2.94 0.00 0.00 44 1019.9
20200223161621 48 281 1.7 10.4 2.94 0.00 0.00 43 1019.9
20200223161121 48 291 1.7 7.8 2.94 0.00 0.00 45 1020.0
20200223160621 48 294 4.3 7.8 2.94 0.00 0.00 45 1020.0
20200223160121 48 304 2.6 11.3 2.94 0.00 0.00 45 1020.1
20200223155621 47 301 2.6 6.1 2.94 0.00 0.00 46 1020.1
20200223155121 47 287 2.6 7.0 2.94 0.00 0.00 46 1020.1
20200223154621 47 190 3.5 7.0 2.94 0.00 0.00 46 1020.2
20200223154121 46 180 5.2 7.0 2.94 0.00 0.00 48 1020.4
20200223153621 45 302 2.6 7.8 2.94 0.00 0.00 47 1020.3
20200223153121 45 293 4.3 7.8 2.94 0.00 0.00 48 1020.4
20200223152621 45 291 5.2 6.1 2.94 0.00 0.00 48 1020.5
20200223152121 44 270 0.9 6.1 2.94 0.00 0.00 52 1020.5
20200223151621 44 158 0.9 3.5 2.94 0.00 0.00 51 1020.5
20200223151121 43 158 1.7 5.2 2.94 0.00 0.00 52 1020.5
20200223150621 43 300 1.7 6.1 2.94 0.00 0.00 52 1020.6
20200223150121 42 204 3.5 6.1 2.94 0.00 0.00 51 1020.6
20200223145621 42 194 2.6 4.3 2.94 0.00 0.00 55 1020.7
20200223145121 41 314 0.9 7.0 2.94 0.00 0.00 56 1020.8
20200223144621 41 280 5.2 5.2 2.94 0.00 0.00 55 1020.7
20200223144121 40 187 3.5 3.5 2.94 0.00 0.00 59 1020.8
20200223143621 39 191 1.7 3.5 2.94 0.00 0.00 57 1020.8
20200223143123 39 158 0.0 4.3 2.94 0.00 0.00 60 1020.9
20200223142621 38 298 1.7 1.7 2.94 0.00 0.00 61 1021.0
20200223142123 38 203 0.9 3.5 2.94 0.00 0.00 61 1021.1
20200223141621 37 190 0.9 3.5 2.94 0.00 0.00 64 1021.2
20200223141121 36 200 2.6 4.3 2.94 0.00 0.00 66 1021.3
20200223140621 36 176 3.5 4.3 2.94 0.00 0.00 68 1021.3
20200223140123 35 194 1.7 3.5 2.94 0.00 0.00 69 1021.4
20200223135622 34 186 0.9 2.6 2.94 0.00 0.00 70 1021.4
20200223135122 34 145 0.9 0.9 2.94 0.00 0.00 72 1021.5
20200223134621 33 180 0.0 2.6 2.94 0.00 0.00 73 1021.5
20200223134121 32 215 0.9 2.6 2.94 0.00 0.00 75 1021.6
20200223133620 31 212 1.7 2.6 2.94 0.00 0.00 76 1021.6
20200223133121 31 215 1.7 3.5 2.94 0.00 0.00 78 1021.7
20200223132620 30 226 2.6 1.7 2.94 0.00 0.00 79 1021.8
20200223132121 30 0 0.0 0.0 2.94 0.00 0.00 81 1021.8
20200223131621 29 0 0.0 0.0 2.94 0.00 0.00 82 1021.8
20200223131121 29 343 0.0 0.9 2.94 0.00 0.00 82 1021.8
20200223130621 28 242 0.0 1.7 2.94 0.00 0.00 84 1021.8
20200223130121 28 339 0.9 2.6 2.94 0.00 0.00 86 1021.7
20200223125620 27 330 0.9 4.3 2.94 0.00 0.00 87 1021.7
20200223125121 27 4 1.7 1.7 2.94 0.00 0.00 88 1021.7
20200223124621 26 3 0.9 2.6 2.94 0.00 0.00 88 1021.7
20200223124120 26 11 1.7 3.5 2.94 0.00 0.00 89 1021.7
20200223123620 26 13 1.7 3.5 2.94 0.00 0.00 90 1021.7
20200223123121 25 24 1.7 2.6 2.94 0.00 0.00 91 1021.6
20200223122620 25 35 0.9 2.6 2.94 0.00 0.00 91 1021.6
20200223122120 24 1 0.0 2.6 2.94 0.00 0.00 91 1021.6
20200223121621 24 0 1.7 0.0 2.94 0.00 0.00 91 1021.6
20200223121120 24 0 0.0 0.0 2.94 0.00 0.00 92 1021.5
20200223120620 24 0 0.0 0.0 2.94 0.00 0.00 92 1021.5
20200223120121 24 0 0.0 0.0 2.94 0.00 0.00 92 1021.5
20200223115621 24 0 0.0 0.0 2.94 0.00 0.00 91 1021.5
20200223115120 24 0 0.0 0.0 2.94 0.00 0.00 91 1021.5
20200223114621 24 0 0.0 0.0 2.94 0.00 0.00 91 1021.5
20200223114120 24 0 0.0 0.0 2.94 0.00 0.00 90 1021.5
20200223113620 25 0 0.0 0.0 2.94 0.00 0.00 89 1021.5
20200223113121 25 0 0.0 0.0 2.94 0.00 0.00 89 1021.5
20200223112620 25 0 0.0 0.0 2.94 0.00 0.00 89 1021.5
20200223112120 25 0 0.0 0.0 2.94 0.00 0.00 89 1021.5
20200223111621 25 0 0.0 0.0 2.94 0.00 0.00 89 1021.6
20200223111120 25 0 0.0 0.0 2.94 0.00 0.00 89 1021.6
20200223110620 25 0 0.0 0.0 2.94 0.00 0.00 89 1021.6
20200223110239 25 0 0.0 0.0 2.94 0.00 0.00 89 1021.6
20200223110121 25 0 0.0 0.0 2.94 0.00 0.00 89 1021.6
20200223105620 25 0 0.0 0.0 2.94 0.00 0.00 89 1021.7
20200223105120 25 0 0.0 0.0 2.94 0.00 0.00 89 1021.8
20200223104621 25 0 0.0 0.0 2.94 0.00 0.00 89 1021.8
20200223104120 25 0 0.0 0.0 2.94 0.00 0.00 90 1021.8
20200223103620 26 0 0.0 0.0 2.94 0.00 0.00 89 1021.8
20200223103121 26 0 0.0 0.0 2.94 0.00 0.00 89 1021.7
20200223102620 26 0 0.0 0.0 2.94 0.00 0.00 88 1021.7
20200223102120 26 0 0.0 0.0 2.94 0.00 0.00 89 1021.7
20200223101621 26 0 0.0 0.0 2.94 0.00 0.00 88 1021.7
20200223101120 26 0 0.0 0.0 2.94 0.00 0.00 88 1021.6
20200223100620 26 0 0.0 0.0 2.94 0.00 0.00 89 1021.7
20200223100121 26 0 0.0 0.0 2.94 0.00 0.00 89 1021.6
20200223095620 25 0 0.0 0.0 2.94 0.00 0.00 89 1021.6
20200223095120 25 0 0.0 0.0 2.94 0.00 0.00 89 1021.5
20200223094621 25 0 0.0 0.0 2.94 0.00 0.00 90 1021.4
20200223094122 25 0 0.0 0.0 2.94 0.00 0.00 90 1021.4
20200223093620 25 0 0.0 0.0 2.94 0.00 0.00 90 1021.4
20200223093121 24 0 0.0 0.0 2.94 0.00 0.00 90 1021.3
20200223092620 24 0 0.0 0.0 2.94 0.00 0.00 90 1021.3
20200223092120 25 0 0.0 0.0 2.94 0.00 0.00 90 1021.3
20200223091621 25 0 0.0 0.0 2.94 0.00 0.00 91 1021.3
20200223091123 25 0 0.0 0.0 2.94 0.00 0.00 91 1021.3
20200223090620 25 0 0.0 0.0 2.94 0.00 0.00 90 1021.2
20200223090121 25 0 0.0 0.0 2.94 0.00 0.00 90 1021.1
20200223085620 25 0 0.0 0.0 2.94 0.00 0.00 90 1021.0
20200223085120 25 0 0.0 0.0 2.94 0.00 0.00 90 1021.0
20200223084621 25 0 0.0 0.0 2.94 0.00 0.00 90 1020.9
20200223084120 25 1 0.0 0.9 2.94 0.00 0.00 89 1020.9
20200223083620 25 1 0.0 1.7 2.94 0.00 0.00 89 1021.0
20200223083121 26 1 0.9 1.7 2.94 0.00 0.00 90 1020.9
20200223082620 26 37 0.9 1.7 2.94 0.00 0.00 89 1020.9
20200223082120 25 314 1.7 2.6 2.94 0.00 0.00 88 1020.9
20200223081620 26 0 0.0 0.0 2.94 0.00 0.00 88 1020.9
20200223081120 26 0 0.0 0.0 2.94 0.00 0.00 88 1021.0
20200223080620 26 0 0.0 0.0 2.94 0.00 0.00 88 1020.9
20200223080120 26 0 0.0 0.0 2.94 0.00 0.00 88 1020.9
20200223075621 26 0 0.0 0.0 2.94 0.00 0.00 88 1020.9
20200223075120 26 0 0.0 0.0 2.94 0.00 0.00 87 1020.9
20200223074621 26 0 0.0 0.0 2.94 0.00 0.00 87 1020.9
20200223074120 26 0 0.0 0.0 2.94 0.00 0.00 87 1020.9
20200223073620 26 0 0.0 0.0 2.94 0.00 0.00 88 1020.9
20200223073121 26 0 0.0 0.0 2.94 0.00 0.00 88 1020.9
20200223072620 26 0 0.0 0.0 2.94 0.00 0.00 88 1020.9
20200223072120 26 336 0.0 1.7 2.94 0.00 0.00 88 1020.9
20200223071620 26 356 0.0 0.9 2.94 0.00 0.00 87 1020.9
20200223071120 26 0 0.0 0.0 2.94 0.00 0.00 86 1020.9
20200223070620 26 0 0.0 0.0 2.94 0.00 0.00 86 1020.9
20200223070120 26 0 0.0 0.0 2.94 0.00 0.00 86 1021.0
20200223065620 26 359 0.0 0.9 2.94 0.00 0.00 86 1021.0
20200223065120 26 0 0.0 0.0 2.94 0.00 0.00 86 1021.0
20200223064620 27 0 0.0 0.0 2.94 0.00 0.00 87 1021.0
20200223064120 27 0 0.0 0.0 2.94 0.00 0.00 87 1021.0
20200223063620 27 0 0.0 0.0 2.94 0.00 0.00 87 1021.1
20200223063120 27 0 0.0 0.0 2.94 0.00 0.00 86 1021.1
20200223062620 27 0 0.0 0.0 2.94 0.00 0.00 86 1021.1
20200223062120 27 0 0.0 0.0 2.94 0.00 0.00 85 1021.1
20200223061620 27 0 0.0 0.0 2.94 0.00 0.00 85 1021.2
20200223061120 27 0 0.0 0.0 2.94 0.00 0.00 85 1021.2
20200223060620 27 0 0.0 0.0 2.94 0.00 0.00 85 1021.2
20200223060120 27 0 0.0 0.0 2.94 0.00 0.00 85 1021.1
20200223055620 27 0 0.0 0.0 2.94 0.00 0.00 84 1021.1
20200223055120 27 0 0.0 0.0 2.94 0.00 0.00 83 1021.1
20200223054620 27 0 0.0 0.9 2.94 0.00 0.00 84 1021.1
20200223054120 28 0 0.9 1.7 2.94 0.00 0.00 85 1021.1
20200223053620 28 4 0.9 1.7 2.94 0.00 0.00 85 1021.1
20200223053120 28 350 1.7 1.7 2.94 0.00 0.00 85 1021.1
20200223052619 28 1 1.7 1.7 2.94 0.00 0.00 84 1021.1
20200223052120 28 0 0.0 0.0 2.94 0.00 0.00 81 1021.1
20200223051620 28 0 0.0 0.0 2.94 0.00 0.00 81 1021.1
20200223051119 28 0 0.0 0.0 2.94 0.00 0.00 80 1021.1
20200223050619 28 0 0.0 0.0 2.94 0.00 0.00 80 1021.2
20200223050120 28 31 0.0 0.0 2.94 0.00 0.00 81 1021.1
20200223045619 28 0 0.0 0.0 2.94 0.00 0.00 81 1021.1
20200223045120 29 0 0.0 0.0 2.94 0.00 0.00 81 1021.1
20200223044620 29 0 0.0 0.0 2.94 0.00 0.00 81 1021.0
20200223044119 29 0 0.0 0.0 2.94 0.00 0.00 79 1021.0
20200223043619 29 0 0.0 0.0 2.94 0.00 0.00 80 1021.0
20200223043120 29 0 0.0 0.0 2.94 0.00 0.00 80 1021.1
20200223042619 29 0 0.0 0.0 2.94 0.00 0.00 80 1021.1
20200223042120 30 13 0.0 0.9 2.94 0.00 0.00 81 1021.1
20200223041620 30 0 0.0 0.0 2.94 0.00 0.00 78 1021.1
20200223041119 30 0 0.0 0.0 2.94 0.00 0.00 76 1021.1